Location: Wildcat Hills Observatory
(41.6350°N, 103.6812°W)
Time: 03:17:29
(UTC-07:00)

Cosmos 1634 Rocket - Visible Passes

Search period start: 29 January 2015 00:00
Search period end: 08 February 2015 00:00
Orbit: 960 x 993 km, 82.9° (Epoch: 27 January)

Date Brightness Start Highest point End Pass type
(mag) Time Alt. Az. Time Alt. Az. Time Alt. Az.
29 Jan 6.9 03:08:16 10° NE 03:09:10 10° ENE 03:10:32 10° ENE visible
29 Jan 4.2 04:49:41 10° N 04:55:57 71° E 05:02:15 10° SSE visible
29 Jan 5.3 06:36:47 10° NW 06:40:46 17° W 06:44:29 10° WSW visible
29 Jan 4.8 18:19:47 10° SSW 18:25:48 54° WNW 18:31:51 10° N visible
30 Jan 6.3 03:31:11 10° NNE 03:35:30 20° ENE 03:40:04 10° ESE visible
30 Jan 3.9 05:15:21 10° NNW 05:21:34 65° W 05:27:47 10° S visible
30 Jan 5.8 18:46:20 10° SW 18:51:42 30° WNW 18:57:00 10° NNW visible
31 Jan 5.4 03:55:57 10° N 04:01:35 35° ENE 04:07:19 10° SE visible
31 Jan 4.5 05:41:21 10° NNW 05:47:01 36° W 05:52:38 10° SSW visible
31 Jan 4.0 17:25:29 10° S 17:31:37 75° E 17:37:48 10° N visible
31 Jan 6.6 19:13:51 10° WSW 19:17:51 17° WNW 19:21:35 10° NNW visible
01 Feb 4.4 04:21:12 10° N 04:27:26 62° E 04:33:41 10° SSE visible
01 Feb 5.1 06:07:53 10° NW 06:12:22 20° W 06:16:36 10° SW visible
01 Feb 4.6 17:51:09 10° SSW 17:57:15 62° W 18:03:24 10° N visible
02 Feb 6.4 03:03:01 10° NNE 03:06:51 17° ENE 03:11:00 10° ESE visible
02 Feb 3.8 04:46:48 10° N 04:53:05 75° W 04:59:22 10° S visible
02 Feb 5.7 18:17:31 10° SW 18:23:06 34° WNW 18:28:39 10° N visible
03 Feb 5.6 03:27:35 10° NNE 03:33:00 30° ENE 03:38:32 10° SE visible
03 Feb 4.3 05:12:43 10° NNW 05:18:35 42° W 05:24:24 10° SSW visible
03 Feb 6.5 18:44:45 10° WSW 18:49:11 19° WNW 18:53:25 10° NNW visible
04 Feb 4.6 03:52:46 10° N 03:58:54 54° ENE 04:05:05 10° SSE visible
04 Feb 5.0 05:39:05 10° NW 05:43:57 23° W 05:48:37 10° SW visible
04 Feb 7.0 19:14:27 10° WNW 19:15:31 10° WNW 19:16:08 10° NW visible
05 Feb 6.6 02:41:01 12° E 02:41:01 12° E 02:41:48 10° E visible
05 Feb 4.2 04:18:16 10° N 04:25:55 59° S 04:30:56 10° S visible
05 Feb 5.7 06:10:48 11° W 06:10:48 11° W 06:11:16 10° W visible
05 Feb 5.5 17:48:45 10° SW 17:54:31 40° WNW 18:00:17 10° N visible
06 Feb 6.5 03:09:02 13° ESE 03:09:02 13° ESE 03:09:41 10° SE visible
06 Feb 5.4 04:53:52 22° SSW 04:53:52 22° SSW 04:56:07 10° SSW visible
06 Feb 6.4 18:15:44 10° WSW 18:20:32 22° WNW 18:25:12 10° NNW visible
07 Feb 6.5 03:36:32 10° SSE 03:36:32 10° SSE 03:23:43 - N visible
07 Feb6.205:21:21SW05:21:21SW05:08:22NNWvisible
07 Feb 6.8 18:44:14 10° W 18:46:49 12° WNW 18:49:01 10° NW visible
